Weather History for Grants-Milan, NM

Change the Weather History Date:

Sunday, January 20, 2013

  Actual Average Record
Temperature  
Mean Temperature 30 °F -  
Max Temperature 53 °F 45 °F 68 °F (1971)
Min Temperature 7 °F 15 °F -14 °F (1963)
Degree Days  
Heating Degree Days 35    
Moisture  
Dew Point 5 °F    
Average Humidity 49    
Maximum Humidity 83    
Minimum Humidity 13    
Precipitation  
Precipitation 0.00 in - - ()
Sea Level Pressure  
Sea Level Pressure 30.31 in    
Wind  
Wind Speed 8 mph (NW)    
Max Wind Speed 14 mph    
Max Gust Speed 20 mph    
Visibility 10 miles    
Events      
Averages and records for this station are not official NWS values.
T = Trace of Precipitation, MM = Missing Value Source: NWS Daily Summary

Daily Weather History Graph

Daily Weather History Graph

Search for Another Location

Airport:

Trip Planner

Search our weather history database for the weather conditions in past years. The results will help you decide how hot, cold, wet, or windy it might be!

Date:

Astronomy

Jan. 20, 2013 Rise Set
Actual Time 7:17 AM MST 5:28 PM MST
Civil Twilight 6:50 AM MST 5:55 PM MST
Nautical Twilight 6:19 AM MST 6:26 PM MST
Astronomical Twilight 5:49 AM MST 6:56 PM MST
Moon 12:30 PM MST 1:54 AM MST
Length of Visible Light 11h 05m
Length of Day
10h 10m
Waxing Gibbous, 67% of the Moon is Illuminated
Jan 20
Waxing Gibbous
Jan 26
Full
Feb 3
Last Quarter
Feb 10
New
Feb 17
First Quarter

Hourly Weather History & Observations

Time (MST) Temp. Windchill Dew Point Humidity Pressure Visibility Wind Dir Wind Speed Gust Speed Precip Events Conditions
12:15 AM 14.2 °F 3.1 °F 7.0 °F 73% 30.38 in 10.0 mi NW 8.1 mph - N/A   Clear
12:35 AM 14.9 °F 3.1 °F 7.7 °F 73% 30.38 in 10.0 mi NW 9.2 mph - N/A   Clear
12:55 AM 15.6 °F 4.0 °F 8.2 °F 73% 30.38 in 10.0 mi NW 9.2 mph - N/A   Clear
1:15 AM 15.6 °F 4.0 °F 8.4 °F 73% 30.38 in 10.0 mi NW 9.2 mph - N/A   Clear
1:35 AM 14.2 °F 2.2 °F 7.3 °F 74% 30.38 in 10.0 mi NW 9.2 mph - N/A   Clear
1:55 AM 14.5 °F 4.6 °F 7.7 °F 74% 30.38 in 10.0 mi WNW 6.9 mph - N/A   Clear
2:15 AM 13.5 °F 3.3 °F 7.3 °F 77% 30.38 in 10.0 mi NW 6.9 mph - N/A   Clear
2:35 AM 14.0 °F 5.1 °F 7.5 °F 75% 30.38 in 10.0 mi NW 5.8 mph - N/A   Clear
2:55 AM 10.2 °F 0.6 °F 4.8 °F 79% 30.38 in 10.0 mi NW 5.8 mph - N/A   Clear
3:15 AM 11.3 °F 0.7 °F 5.9 °F 79% 30.38 in 10.0 mi NW 6.9 mph - N/A   Clear
3:35 AM 9.0 °F -3.2 °F 4.1 °F 81% 30.38 in 10.0 mi NNW 8.1 mph - N/A   Clear
3:55 AM 7.7 °F -3.7 °F 2.7 °F 80% 30.38 in 10.0 mi NW 6.9 mph - N/A   Clear
4:15 AM 8.8 °F -3.5 °F 3.7 °F 80% 30.37 in 10.0 mi WNW 8.1 mph - N/A   Clear
4:35 AM 9.3 °F -3.8 °F 4.5 °F 81% 30.37 in 10.0 mi NW 9.2 mph - N/A   Clear
4:55 AM 8.8 °F -3.5 °F 4.1 °F 81% 30.36 in 10.0 mi WNW 8.1 mph - N/A   Clear
5:15 AM 9.5 °F -3.5 °F 4.3 °F 79% 30.36 in 10.0 mi NW 9.2 mph - N/A   Clear
5:35 AM 7.5 °F -3.9 °F 3.2 °F 82% 30.36 in 10.0 mi WNW 6.9 mph - N/A   Clear
5:55 AM 9.5 °F -1.5 °F 4.6 °F 81% 30.36 in 10.0 mi WNW 6.9 mph - N/A   Clear
6:15 AM 9.1 °F -3.0 °F 4.1 °F 80% 30.36 in 10.0 mi NW 8.1 mph - N/A   Clear
6:35 AM 8.8 °F -4.4 °F 4.1 °F 81% 30.36 in 10.0 mi NW 9.2 mph - N/A   Clear
6:55 AM 9.0 °F -2.2 °F 3.9 °F 80% 30.36 in 10.0 mi NW 6.9 mph - N/A   Clear
7:15 AM 7.0 °F -5.7 °F 2.8 °F 83% 30.36 in 10.0 mi NW 8.1 mph - N/A   Clear
7:35 AM 9.0 °F -2.2 °F 4.1 °F 81% 30.35 in 10.0 mi NW 6.9 mph - N/A   Clear
7:55 AM 11.8 °F 0.3 °F 5.7 °F 76% 30.35 in 10.0 mi NW 8.1 mph - N/A   Clear
8:15 AM 14.9 °F 3.1 °F 6.8 °F 70% 30.35 in 10.0 mi NW 9.2 mph - N/A   Clear
8:35 AM 15.6 °F 5.9 °F 6.4 °F 67% 30.36 in 10.0 mi NW 6.9 mph - N/A   Clear
8:55 AM 19.2 °F 11.3 °F 7.7 °F 61% 30.36 in 10.0 mi NW 5.8 mph - N/A   Clear
9:15 AM 21.9 °F 13.4 °F 8.1 °F 55% 30.36 in 10.0 mi NW 6.9 mph - N/A   Clear
9:35 AM 25.5 °F 17.8 °F 8.6 °F 49% 30.36 in 10.0 mi NNW 6.9 mph - N/A   Clear
9:55 AM 30.0 °F 22.4 °F 8.4 °F 40% 30.36 in 10.0 mi North 8.1 mph - N/A   Clear
10:15 AM 32.0 °F 24.8 °F 8.6 °F 38% 30.35 in 10.0 mi North 8.1 mph - N/A   Clear
10:35 AM 33.4 °F 26.6 °F 8.6 °F 35% 30.34 in 10.0 mi North 8.1 mph - N/A   Clear
10:55 AM 36.5 °F 29.7 °F 9.7 °F 33% 30.34 in 10.0 mi North 9.2 mph - N/A   Clear
11:15 AM 39.9 °F 35.1 °F 11.1 °F 31% 30.32 in 10.0 mi North 6.9 mph - N/A   Clear
11:35 AM 43.2 °F 39.0 °F 11.3 °F 27% 30.30 in 10.0 mi NNW 6.9 mph - N/A   Clear
11:55 AM 46.8 °F - 10.9 °F 24% 30.29 in 10.0 mi North 9.2 mph - N/A   Clear
12:15 PM 48.6 °F - 10.9 °F 22% 30.28 in 10.0 mi North 8.1 mph - N/A   Clear
12:35 PM 51.1 °F - 4.8 °F 15% 30.26 in 10.0 mi NNW 10.4 mph - N/A   Clear
12:55 PM 52.0 °F - 5.0 °F 15% 30.24 in 10.0 mi NNW 11.5 mph - N/A   Clear
1:15 PM 52.7 °F - 5.5 °F 15% 30.24 in 10.0 mi North 12.7 mph 18.4 mph N/A   Clear
1:35 PM 53.2 °F - 5.5 °F 15% 30.23 in 10.0 mi North 12.7 mph 17.3 mph N/A   Clear
1:55 PM 53.4 °F - 4.1 °F 14% 30.23 in 10.0 mi North 13.8 mph 19.6 mph N/A   Clear
2:15 PM 53.8 °F - 4.1 °F 13% 30.23 in 10.0 mi North 12.7 mph 16.1 mph N/A   Clear
2:35 PM 53.4 °F - 6.4 °F 15% 30.23 in 10.0 mi North 9.2 mph 17.3 mph N/A   Clear
2:55 PM 52.7 °F - 5.9 °F 15% 30.23 in 10.0 mi North 12.7 mph 18.4 mph N/A   Clear
3:15 PM 52.2 °F - 5.7 °F 15% 30.24 in 10.0 mi North 11.5 mph - N/A   Clear
3:35 PM 51.4 °F - 5.0 °F 15% 30.23 in 10.0 mi North 11.5 mph 17.3 mph N/A   Clear
3:55 PM 50.7 °F - 5.0 °F 16% 30.24 in 10.0 mi North 12.7 mph - N/A   Clear
4:15 PM 50.0 °F - 4.6 °F 16% 30.24 in 10.0 mi North 10.4 mph 16.1 mph N/A   Clear
4:35 PM 48.7 °F - 3.2 °F 16% 30.24 in 10.0 mi North 9.2 mph - N/A   Clear
4:55 PM 46.9 °F - 2.3 °F 16% 30.25 in 10.0 mi North 6.9 mph - N/A   Clear
5:15 PM 44.2 °F 39.7 °F 0.3 °F 16% 30.26 in 10.0 mi North 8.1 mph - N/A   Clear
5:35 PM 36.5 °F 32.7 °F 1.2 °F 23% 30.26 in 10.0 mi NW 4.6 mph - N/A   Clear
5:55 PM 37.0 °F 34.5 °F 3.6 °F 25% 30.26 in 10.0 mi West 3.5 mph - N/A   Clear
6:15 PM 32.0 °F 25.6 °F 2.7 °F 29% 30.26 in 10.0 mi WNW 6.9 mph - N/A   Clear
6:35 PM 31.8 °F 26.2 °F 3.6 °F 30% 30.27 in 10.0 mi NW 5.8 mph - N/A   Clear
6:55 PM 28.0 °F 21.7 °F 1.9 °F 33% 30.27 in 10.0 mi NNW 5.8 mph - N/A   Clear
7:15 PM 25.5 °F 18.7 °F 0.7 °F 34% 30.27 in 10.0 mi WNW 5.8 mph - N/A   Clear
7:35 PM 25.3 °F 19.7 °F 3.7 °F 40% 30.27 in 10.0 mi WNW 4.6 mph - N/A   Clear
7:55 PM 23.0 °F 17.0 °F 3.0 °F 42% 30.28 in 10.0 mi NW 4.6 mph - N/A   Clear
8:15 PM 21.9 °F 15.7 °F 2.8 °F 44% 30.28 in 10.0 mi WNW 4.6 mph - N/A   Clear
8:35 PM 19.4 °F 10.4 °F 2.3 °F 48% 30.28 in 10.0 mi NW 6.9 mph - N/A   Clear
8:55 PM 22.3 °F 13.0 °F 3.4 °F 44% 30.28 in 10.0 mi NW 8.1 mph - N/A   Clear
9:15 PM 23.2 °F 16.0 °F 4.3 °F 44% 30.29 in 10.0 mi NNW 5.8 mph - N/A   Clear
9:35 PM 17.2 °F 8.9 °F 2.5 °F 52% 30.29 in 10.0 mi NW 5.8 mph - N/A   Clear
9:55 PM 22.3 °F 13.0 °F 5.0 °F 48% 30.29 in 10.0 mi WNW 8.1 mph - N/A   Clear
10:15 PM 20.8 °F 12.1 °F 4.8 °F 50% 30.30 in 10.0 mi NW 6.9 mph - N/A   Clear
10:35 PM 18.3 °F 8.2 °F 3.6 °F 53% 30.29 in 10.0 mi NW 8.1 mph - N/A   Clear
10:55 PM 16.5 °F 6.0 °F 3.9 °F 58% 30.29 in 10.0 mi NW 8.1 mph - N/A   Clear
11:15 PM 17.8 °F 6.6 °F 6.3 °F 61% 30.29 in 10.0 mi WNW 9.2 mph - N/A   Clear
11:35 PM 17.4 °F 7.1 °F 5.9 °F 61% 30.29 in 10.0 mi NW 8.1 mph - N/A   Clear
11:55 PM 18.5 °F 8.4 °F 7.7 °F 63% 30.29 in 10.0 mi NW 8.1 mph - N/A   Clear